Погода в Дербенте

Погода в Дербенте : погода сейчас, прогноз погоды и архив. Всё, что Вы хотите узнать о погоде в Дербенте!

Поиск расширенной информации на нашем сайте:

Полезная информация: Регистрация права собственности хабаровск смотрите на http://www.urotdel-dv.ru.
Купить ввгнг хабаровск на http://eksi.su.

Другие новости

Новости СМИ2

Главная страница сайта

Новости сайта

02.10.2013

Напоминаем, что на нашем новом сайте вы можете получить высокодетализированные прогнозы погоды по пунктам России, СНГ и мира (включающие важные для авиации метеовеличины, такие как направление и скорость ветра, видимость, явления погоды, количество и форма облачности, нижняя и верхняя граница облачности), а также ознакомиться с разнообразными материалами по авиационной метеорологии и подборкой полезных ссылок на эту тему.

Сайт Метеоцентр.Азия посвящён разработке технологий оптимизации авиаметеорологического обслуживания, включая проектирование и перспективное создание нескольких автоматизированных авиаметеорологических систем:
- система выпуска высокодетальных прогностических карт явлений погоды для нижнего воздушного пространства по России и ближнему зарубежью;
- система верификации прогнозов TAF (выпускаемых синоптиками официальных АМСГ РФ и ближнего зарубежья) и AUTOTAF (выпускаемых сайтом Метеоцентр.Азия) - выявление ошибок, онлайн-сопоставление с фактической погодой METAR, автоматическое внесение коррективов в прогнозы при резком отклонении фактической погоды от прогноза, подсчёт оправдываемости прогнозов по элементам и в целом;
- система обработки, анализа и отображения авиаметеорологической информации для применения провайдерами метеорологической информации.

Рекомендуем: марля хабаровск

Погода в Дербенте - сегодня

Время (UTC), дата Ветер
(°,м/с) 
Видим.   Явления Облачность Т
(°С)
Тd
(°С)
f(%) Тe
(°С)
Pmin
(гПа)
dP
(гПа)
Po
(мм)
O2
(г/м3)
Тmin Tmax R s Состояние
почвы
09 18.01.17 130 (ЮВ) 20000 м    9/9 600 м 
[Sc]
+4.9 +2.9 87 +6  1027.5  -1.2  772  305           
12 18.01.17 140 (ЮВ) 20000 м    10/10 300 м кучево-дожд. 
[Cb cap]
+4.8 +2.8 87 +6  1027.4  -0.1  772  305           
15 18.01.17 150 (ЮВ) 10 км    10/10 300 м кучево-дожд. 
[Cb cap]
+4.9 +2.1 82 +6  1028.1  0.7  773  306    +5.3  0.0     
18 18.01.17 тихо ()   н/о    н/о 
+4.7 +2.6 86 +5  1028.5  0.4  773  306           
21 18.01.17 360 (С) 10 км    8/8 600 м 
[Sc]
+4.1 +2.5 89 +5  1027.7  -0.8  773  306           
00 19.01.17 300 (СЗ) 10 км    8/8 600 м 
[Sc]
+4.5 +2.2 85 +5  1027.6  0.1  772  306           
03 19.01.17 100 (В) 10 км    8/8 600 м 
[Sc]
+3.7 +2.1 89 +3  1028  0.1  773  307  +3.7         
06 19.01.17 110 (В) 20000 м  {ливн. осадки}  10/10 300 м кучево-дожд. 
[Cb cap]
+4.1 +2.2 87 +5  1029.4  1.4  774  307           
09 19.01.17 330 (СЗ) 20000 м  в посл. час ливневой дождь  10/10 300 м кучево-дожд. 
[Cb cap]
+3.2 +1.7 90 +2  1029.2  -0.2  774  308           
12 19.01.17 300 (СЗ) 5-10{11}  4000 м  слаб. ливневой снег  10/10 300 м кучево-дожд. 
[Cb cap]
+0.7 -0.4 92 -2  1029.9  0.7  774  311           
15 19.01.17 310 (СЗ) 4{10}  4000 м  слаб. ливневой снег  10/10 300 м кучево-дожд. 
[Cb cap]
+0.3 -0.8 92 -2  1031.2  1.4  775  312    +4.6     
18 19.01.17 300 (СЗ) 3{11}  4000 м  слаб. ливневой снег  10/10 300 м кучево-дожд. 
[Cb cap]
-0.6 -1.7 92 -2  1032.3  776  314           
21 19.01.17 290 (З) 4000 м  {ливн. осадки}  10/10 300 м кучево-дожд. 
[Cb cap]
-1.1 -2.6 90 -3  1032.2  0.1  776  314           
00 20.01.17 290 (З) 10 км  {ливн. осадки}  10/10 300 м кучево-дожд. 
[Cb cap]
-1.4 -3 89 -2  1032.2  776  315           
03 20.01.17 290 (З) 10 км    10/10 600 м 
[Sc|Ac trans]
-1.3 -3.8 83 -2  1031.3  -0.9  775  314  -1.5         
06 20.01.17 340 (С) 20000 м    10/10 600 м 
[Sc]
-0.6 -3.5 81 -1  1031.5  0.2  775  314           
09 20.01.17 360 (С) 20000 м    9/8 600 м средняя 
[Sc|Ac trans]
+1.3 -1.7 80 +1  1029.9  -1.6  774  311           
12 20.01.17 360 (С) 20000 м    9/9 600 м 
[Sc]
+1.4 -1.5 81 +1  1028.2  -1.7  773  310           
15 20.01.17 тихо ()   10 км    9/9 600 м 
[Sc]
+0.6 -1.7 85 +1  1027.6  -0.6  772  311    +1.8       
18 20.01.17 тихо ()   10 км    9/8 600 м средняя 
[Sc|Ac trans]
+0.8 -1.8 83 +1  1026.9  -0.7  772  310           
21 20.01.17 340 (С) 10 км    6/4 600 м средняя 
[Sc|Ac trans]
+0.2 -1.5 88 +1  1025.4  -1.5  771  311           
00 21.01.17 300 (СЗ) 10 км    8/4 600 м средняя 
[Sc|Ac trans]
-0.2 -2 88 -1  1025.1  -0.3  771  311           
03 21.01.17 320 (СЗ) 10 км    9/6 600 м средняя 
[Sc|Ac trans]
-0.2 -2.1 87 -1  1025  0.1  770  311  -0.3         
06 21.01.17 290 (З) 20000 м    9/9 600 м 
[Sc]
+0.6 -2.1 82 1026.6  1.6  772  311           
09 21.01.17 120 (ЮВ) 20000 м    10/10 300 м кучево-дожд. 
[Cb cap]
+2.7 -1 77 +2  1024.9  -1.8  770  308           
Время (UTC), дата Ветер
(°,м/с) 
Видим.   Явления Облачность Т
(°С)
Тd
(°С)
f(%) Тe
(°С)
Pmin
(гПа)
dP
(гПа)
Po
(мм)
O2
(г/м3)
Тmin Tmax R s Состояние
почвы

Для получения пояснительной информации подведите курсор к названию столбца.

ПОГОДА в Дербенте - архив

Всё, что Вы хотите узнать о погоде в Дербенте - удобно и подробно!

Выберите нужную дату (начиная с 1 января 2015* года) и нажмите кнопку "Найти".
Будут отображены архивные сводки погоды по пункту Дербент, начиная с указанной даты.


Отображать данные в формате CSV (для использования в таблицах Excel)


Внимание! Наш архив погоды предназначен исключительно для личного некоммерческого использования в познавательных целях. Если Вам необходимы официальные справки о состоянии погоды (для производственных, юридических, коммерческих и т.п. целей), обращайтесь в органы Росгидромета.

*Примечание: данная дата относится к архиву по метеостанциям СССР (Россия, СНГ, Балтия).
Архив по метеостанциям Зарубежной Европы и Азии (кроме Китая) хранится 10 дней, по другим регионам земного шара (Китай, Африка, Америка, Австралия, Океания) - 1 день.

Дербент - район местоположения метеостанции


Название, широта, долгота, высота метеостанции:
Дербент 42.1°ш. 48.3°д. -19 м над ур. моря [Российская Федерация]

Дополнительная информация

В oтличие oт бoльшинства пoгoдных сайтoв мы публикуем пoдрoбную метеoинфoрмацию в детальнoм прoфессиoнальнoм фoрмате.

Характеристики температуры и влажнoсти вoздуха измеряются на высoте 2 м в тени вдали oт зданий и деревьев.
Скoрoсть ветра измеряется на высoте 10 м (на урoвне рoста челoвека скoрoсть ветра ниже в 1.5-2 раза). Если метеoстанция нахoдится в гoрoде или в лесу, тo скoрoсть ветра занижена на 2-4 м/с пo сравнению с oткрытым местoм. Скoрoсть ветра над акватoриями крупных рек и oзёр, а также на вершинах хoлмoв на 2-5 м/с выше, чем в oбычных услoвиях.
Атмoсфернoе давление в разных тoчках местнoсти мoжет значительнo oтличаться oт давления на метеoстанции, в зависимoсти oт услoвий рельефа (при пoдъёме на 10 м давление пoнижается примернo на 1 мм рт.ст.).